Time,TemperatureF,DewpointF,PressureIn,WindDirection,WindDirectionDegrees,WindSpeedMPH,WindSpeedGustMPH,Humidity,HourlyPrecipIn,Conditions,Clouds,dailyrainin,SoftwareType,DateUTC
2013-03-16 17:23:00,26.0,19.0,30.16,WNW,293,3.0,14.0,76,0.00,,,0.00,,2013-03-16 22:23:00,
2013-03-16 17:33:00,25.0,19.0,30.17,NW,306,4.0,9.0,77,0.00,,,0.00,,2013-03-16 22:33:00,
2013-03-16 17:42:00,25.0,19.0,30.17,NW,306,4.0,9.0,77,0.00,,,0.00,,2013-03-16 22:42:00,
2013-03-16 17:52:00,25.0,19.0,30.17,NW,306,4.0,9.0,77,0.00,,,0.00,,2013-03-16 22:52:00,
2013-03-16 18:02:00,25.0,19.0,30.17,NNW,327,4.0,15.0,76,0.00,,,0.00,,2013-03-16 23:02:00,
2013-03-16 18:12:00,25.0,19.0,30.17,NNW,327,4.0,15.0,76,0.00,,,0.00,,2013-03-16 23:12:00,
2013-03-16 18:22:00,25.0,19.0,30.18,WNW,284,4.0,14.0,77,0.00,,,0.00,,2013-03-16 23:22:00,
2013-03-16 18:33:00,24.0,18.0,30.18,NNW,327,4.0,15.0,77,0.00,,,0.00,,2013-03-16 23:33:00,
2013-03-16 18:42:00,24.0,18.0,30.18,NNW,327,4.0,15.0,77,0.00,,,0.00,,2013-03-16 23:42:00,
2013-03-16 18:52:00,23.0,17.0,30.19,West,281,4.0,15.0,79,0.00,,,0.00,,2013-03-16 23:52:00,
2013-03-16 19:01:00,23.0,17.0,30.19,NNW,329,3.0,16.0,79,0.00,,,0.00,,2013-03-17 00:01:00,
2013-03-16 19:12:00,23.0,17.0,30.19,NNW,329,3.0,16.0,79,0.00,,,0.00,,2013-03-17 00:12:00,
2013-03-16 19:22:00,22.0,16.0,30.20,NW,313,2.0,15.0,79,0.00,,,0.00,,2013-03-17 00:22:00,
2013-03-16 19:32:00,22.0,16.0,30.19,NW,326,5.0,12.0,79,0.00,,,0.00,,2013-03-17 00:32:00,
2013-03-16 19:42:00,22.0,16.0,30.19,NW,326,5.0,12.0,79,0.00,,,0.00,,2013-03-17 00:42:00,
2013-03-16 19:52:00,21.0,15.0,30.19,WNW,294,4.0,18.0,77,0.00,,,0.00,,2013-03-17 00:52:00,
2013-03-16 20:02:00,21.0,16.0,30.20,WNW,301,4.0,17.0,79,0.00,,,0.00,,2013-03-17 01:02:00,
2013-03-16 20:12:00,21.0,16.0,30.20,WNW,301,4.0,17.0,79,0.00,,,0.00,,2013-03-17 01:12:00,
2013-03-16 20:22:00,20.0,14.0,30.21,NNW,336,5.0,17.0,77,0.00,,,0.00,,2013-03-17 01:22:00,
2013-03-16 20:32:00,20.0,15.0,30.22,NNW,333,4.0,19.0,81,0.00,,,0.00,,2013-03-17 01:32:00,
2013-03-16 20:42:00,20.0,15.0,30.22,NNW,333,4.0,19.0,81,0.00,,,0.00,,2013-03-17 01:42:00,
2013-03-16 20:53:00,19.0,14.0,30.23,WNW,294,5.0,14.0,82,0.00,,,0.00,,2013-03-17 01:53:00,
2013-03-16 21:02:00,19.0,14.0,30.23,NW,319,6.0,17.0,81,0.00,,,0.00,,2013-03-17 02:02:00,
2013-03-16 21:12:00,19.0,14.0,30.23,NW,319,6.0,17.0,81,0.00,,,0.00,,2013-03-17 02:12:00,
2013-03-16 21:22:00,19.0,14.0,30.24,NW,308,4.0,20.0,81,0.00,,,0.00,,2013-03-17 02:22:00,
2013-03-16 21:33:00,18.0,13.0,30.24,NW,323,5.0,14.0,80,0.00,,,0.00,,2013-03-17 02:33:00,
2013-03-16 21:42:00,18.0,13.0,30.24,NW,323,5.0,14.0,80,0.00,,,0.00,,2013-03-17 02:42:00,
2013-03-16 21:53:00,18.0,13.0,30.24,NW,304,5.0,22.0,81,0.00,,,0.00,,2013-03-17 02:53:00,
2013-03-16 22:02:00,18.0,13.0,30.25,WNW,290,4.0,20.0,81,0.00,,,0.00,,2013-03-17 03:02:00,
2013-03-16 22:12:00,18.0,13.0,30.25,WNW,290,4.0,20.0,81,0.00,,,0.00,,2013-03-17 03:12:00,
2013-03-16 22:22:00,17.0,13.0,30.26,NW,304,3.0,15.0,83,0.00,,,0.00,,2013-03-17 03:22:00,
2013-03-16 22:33:00,17.0,12.0,30.27,WNW,302,4.0,15.0,82,0.00,,,0.00,,2013-03-17 03:33:00,
2013-03-16 22:43:00,17.0,12.0,30.27,WNW,302,4.0,15.0,82,0.00,,,0.00,,2013-03-17 03:43:00,
2013-03-16 22:53:00,17.0,12.0,30.27,WNW,294,3.0,14.0,82,0.00,,,0.00,,2013-03-17 03:53:00,
2013-03-16 23:03:00,16.0,11.0,30.28,NW,318,5.0,16.0,81,0.00,,,0.00,,2013-03-17 04:03:00,
2013-03-16 23:12:00,16.0,11.0,30.28,NW,318,5.0,16.0,81,0.00,,,0.00,,2013-03-17 04:12:00,
2013-03-16 23:23:00,16.0,12.0,30.28,WNW,284,2.0,12.0,83,0.00,,,0.00,,2013-03-17 04:23:00,
2013-03-16 23:32:00,16.0,11.0,30.28,NW,311,3.0,9.0,82,0.00,,,0.00,,2013-03-17 04:32:00,
2013-03-16 23:42:00,16.0,11.0,30.28,NW,311,3.0,9.0,82,0.00,,,0.00,,2013-03-17 04:42:00,
2013-03-16 23:53:00,16.0,11.0,30.28,NW,314,3.0,7.0,82,0.00,,,0.00,,2013-03-17 04:53:00,